User: anonymous   Login
Location: Albany
(35.0000°S, 118.0000°E)
Time: 23:36:55
(UTC-04:00)
Language:

Centaur D-1AR AC-48 - Orbit

View from above orbital plane
View from above orbital plane
View from above satellite
View from above satellite

Ground track
Ground track

The orbit data is extracted from the following two-line orbital elements,

1 10779U 78035B   16267.05069111 -.00000169 +00000-0 +10658-2 0  9991
2 10779 021.3199 162.0833 7165779 208.7508 344.7824 02.22651465312681
Epoch (UTC): 23 September 2016 01:12:59
Eccentricity: 0.7165779
inclination: 21.3199°
perigee height: 643 km
apogee height: 36147 km
right ascension of ascending node: 162.0833°
argument of perigee: 208.7508°
revolutions per day: 2.22651465
mean anomaly at epoch: 344.7824°
orbit number at epoch: 31268

The dashed part of the orbit path shows where the satellite is in the earth's shadow,  

DLR